This is the latest recevied weather packets stored in our database for station/object 9M4GEK-3. If no packets are shown the sender has not sent any weather packets the latest 10 day(s).
| Time | Temp. | Humidity | Pressure | Rain* | Wind** | Luminosity | Snow |
|---|---|---|---|---|---|---|---|
| 1777767699 | 31.67° C | 67% | 1008.1 hPa | - | - | - | - |
| 1777767610 | 31.67° C | 67% | 1008.1 hPa | - | - | - | - |
| 1777766865 | 28.89° C | 73% | 1007.8 hPa | - | - | - | - |
| 1777766709 | 28.89° C | 73% | 1007.8 hPa | - | - | - | - |
| 1777765809 | 28.33° C | 74% | 1007.7 hPa | - | - | - | - |
| 1777764909 | 27.22° C | 77% | 1007.6 hPa | - | - | - | - |
| 1777764009 | 26.67° C | 78% | 1007.5 hPa | - | - | - | - |
| 1777763108 | 26.11° C | 79% | 1007.4 hPa | - | - | - | - |
| 1777762208 | 26.11° C | 80% | 1007.1 hPa | - | - | - | - |
| 1777761308 | 26.11° C | 79% | 1006.9 hPa | - | - | - | - |
| 1777760441 | 26.11° C | 80% | 1006.7 hPa | - | - | - | - |
| 1777760408 | 26.11° C | 80% | 1006.7 hPa | - | - | - | - |
| 1777759507 | 26.11° C | 80% | 1006.6 hPa | - | - | - | - |
| 1777758607 | 26.11° C | 81% | 1006.6 hPa | - | - | - | - |
| 1777757707 | 26.11° C | 79% | 1006.5 hPa | - | - | - | - |
| 1777756988 | 26.11° C | 79% | 1006.6 hPa | - | - | - | - |
| 1777756807 | 26.11° C | 79% | 1006.6 hPa | - | - | - | - |
| 1777755908 | 26.11° C | 80% | 1006.6 hPa | - | - | - | - |
| 1777755008 | 26.11° C | 80% | 1006.7 hPa | - | - | - | - |
| 1777754176 | 26.11° C | 79% | 1006.9 hPa | - | - | - | - |
| 1777754107 | 26.11° C | 79% | 1006.9 hPa | - | - | - | - |
| 1777753270 | 26.11° C | 79% | 1006.8 hPa | - | - | - | - |
| 1777753207 | 26.11° C | 79% | 1006.8 hPa | - | - | - | - |
| 1777752369 | 26.11° C | 79% | 1007 hPa | - | - | - | - |
| 1777752307 | 26.11° C | 79% | 1007 hPa | - | - | - | - |
* Rain since midnight (hover to see other rain measurements)
** Current wind speed in m/s (hover to see current wind gust speed)